Location: Newark
(39.8867°N, 94.3600°W)
Time: 21:05:25
(UTC+00:00)

N. Korean satellite - Pass Details

Date: 25 January 2020
Orbit: 456 x 505 km, 97.2° (Epoch: 23 February)

Event Time Altitude Azimuth Distance (km) Brightness Sun altitude
Rises 12:01:10 0° 13° (NNE) 2,539 10.2 -17.4°
Reaches altitude 10° 12:03:13 10° 14° (NNE) 1,664 9.3 -17.0°
Maximum altitude 12:06:48 79° 102° (ESE) 501 6.6 -16.3°
Drops below altitude 10° 12:10:25 10° 189° (S) 1,678 9.3 -15.7°
Sets 12:12:29 0° 190° (S) 2,563 10.3 -15.3°
